Temperature
21 21 20 20 19 19 22 23 24 24 24 25 25 24 23 22 22 21 21 22 21 21 20 20 20 20 20 20 20 20 20 19 19 19 19 19 19 19 19 18 18 18 18 18 18 18 18 18 18
21 21 20 20 19 21 22 24 24 24 24 25 25 24 23 22 22 22 21 21 21 21 20 20 20 20 20 20 20 20 20 19 19 19 19 19 19 18 18 18 18 18 18 18 18 18 18 18 17
21 21 20 18 20 21 23 24 24 25 25 25 24 24 23 22 22 22 22 21 21 21 20 20 20 20 20 20 20 20 20 19 19 19 19 19 18 18 18 18 18 18 18 18 18 18 18 18 17
21 21 21 19 22 22 23 24 24 24 25 25 24 22 22 22 23 22 22 21 21 21 20 20 20 20 20 20 20 19 19 19 19 19 19 18 18 18 18 18 18 18 18 18 18 17 17 17 17
22 21 19 20 21 22 23 25 25 24 24 24 24 22 22 22 23 23 22 21 21 21 20 20 20 20 20 20 19 19 19 19 19 19 18 18 18 18 18 18 18 18 18 18 18 17 17 17 17
22 19 19 20 22 23 24 26 25 24 24 24 23 22 21 22 22 22 22 21 21 21 20 20 20 20 19 19 19 19 19 19 19 18 18 18 18 18 18 18 18 18 18 18 18 18 17 17 17
21 19 20 21 22 23 26 26 25 24 24 24 24 21 20 21 22 22 21 21 20 20 20 19 19 19 19 19 19 19 19 19 19 18 18 18 18 18 18 18 18 18 18 18 18 17 17 17 17
23 19 21 21 22 24 26 26 26 25 24 24 24 22 21 22 21 21 21 20 20 20 20 19 19 19 19 19 19 19 19 18 18 18 18 18 18 18 18 18 18 18 18 18 17 17 17 17 17
23 19 20 22 23 24 26 25 26 26 25 24 23 23 23 22 21 20 20 19 19 19 19 19 19 19 19 19 19 19 18 18 18 18 18 18 18 18 18 18 18 18 18 17 17 17 17 17 17
22 19 21 23 24 25 25 25 25 25 23 23 22 22 22 21 21 20 20 19 19 19 19 19 19 19 19 19 19 18 18 18 18 18 18 18 18 18 18 18 18 18 17 17 17 17 17 17 17
22 21 22 24 25 25 25 25 25 24 23 23 23 22 21 21 20 20 20 19 19 19 18 18 19 19 19 19 18 18 18 18 18 18 18 18 18 18 18 18 18 17 17 17 17 17 17 17 17
22 22 24 25 26 26 25 25 25 24 25 26 25 24 22 21 20 20 20 19 19 19 19 19 19 18 18 18 18 18 18 18 18 18 18 18 18 18 18 18 18 18 17 17 17 17 17 17 17
24 24 25 26 26 26 25 24 24 24 25 25 24 23 22 21 21 20 20 20 19 19 19 19 18 18 18 18 18 18 18 18 18 18 18 18 18 18 18 18 18 18 17 17 17 17 17 17 17
24 24 25 25 26 26 24 24 24 24 24 24 23 22 22 21 21 20 19 19 19 19 19 19 18 18 18 18 18 18 18 18 18 18 18 18 18 18 18 18 18 17 17 17 17 17 17 17 17
24 23 23 25 25 26 25 24 24 24 23 22 22 21 21 21 20 20 20 20 20 20 19 19 18 18 18 18 18 18 18 18 18 18 18 18 18 17 17 18 17 17 17 17 17 17 17 17 17
23 23 23 24 25 25 25 24 23 23 22 21 21 20 20 20 20 20 20 20 20 20 19 19 18 18 18 18 18 18 18 18 18 18 18 18 17 17 17 17 17 17 17 17 17 17 17 17 17
21 22 23 23 24 25 24 23 23 22 22 20 20 20 20 20 20 20 20 20 20 20 19 18 18 18 18 18 18 18 18 18 18 18 18 18 17 17 17 17 17 17 17 17 17 17 17 17 17
22 22 22 22 23 24 23 22 22 22 21 20 20 19 19 20 20 20 20 20 20 19 19 18 18 18 18 17 17 17 17 18 18 18 18 17 17 17 17 17 17 17 17 17 17 17 17 17 17
23 22 21 22 24 23 22 22 21 21 21 20 19 19 19 20 20 20 20 19 19 19 18 18 18 18 17 17 17 17 17 18 18 18 18 17 17 17 17 17 17 17 17 17 17 17 17 17 17
22 22 21 22 23 24 22 22 21 21 21 20 20 19 20 20 19 19 19 19 19 19 18 18 17 17 17 17 18 18 18 18 18 18 17 17 17 17 17 17 17 17 17 17 17 17 17 17 17
22 21 22 22 22 22 23 22 21 21 20 20 20 20 20 20 20 20 19 19 19 18 18 18 18 17 17 17 17 17 17 17 17 17 17 17 17 17 17 17 17 17 17 17 17 17 17 17 17
21 22 22 22 22 20 22 21 21 20 20 19 19 19 19 20 20 20 20 19 19 19 18 18 18 17 17 17 17 17 18 17 18 18 17 17 17 17 17 17 17 17 17 17 17 17 17 17 17
22 23 23 22 21 20 20 20 20 19 20 19 19 19 19 20 20 20 20 20 19 19 18 18 18 18 17 17 17 17 17 18 18 17 17 17 17 17 17 17 17 17 17 17 17 17 17 16 16
23 22 20 18 18 20 21 20 20 19 20 20 19 19 19 19 19 19 19 19 19 19 18 18 18 17 17 17 17 17 17 17 17 17 17 17 17 17 17 16 16 16 16 16 16 16 16 16 16
23 20 19 20 19 19 19 20 19 20 20 19 19 19 19 19 19 19 19 19 19 19 18 18 17 17 17 17 17 17 17 17 17 17 17 17 17 17 17 16 16 16 16 16 16 16 16 16 16
21 20 19 20 20 19 19 19 19 20 20 20 20 19 19 19 19 19 19 19 19 18 18 18 18 17 17 17 17 17 17 17 17 17 17 17 17 17 17 16 16 16 16 16 16 16 16 16 16
21 19 19 18 19 19 19 19 19 20 19 19 19 19 19 19 19 19 19 19 19 18 18 18 18 18 17 17 17 17 17 17 17 17 17 17 17 17 16 16 16 16 16 16 16 16 16 16 16
21 18 17 18 18 20 21 20 19 20 20 18 18 18 19 19 19 19 19 19 19 18 18 18 18 18 17 17 17 17 17 17 17 17 17 16 16 17 16 16 16 16 16 16 16 16 16 16 16
21 20 17 16 17 18 19 20 20 19 19 18 18 19 19 19 20 20 19 19 19 18 18 18 18 17 17 17 17 17 17 16 16 16 16 16 16 16 16 16 16 16 16 16 15 15 15 15 15
22 20 17 19 18 17 18 19 20 19 18 18 18 19 19 19 20 19 19 19 19 18 18 18 17 17 17 17 16 16 16 16 16 16 16 16 16 16 16 16 16 16 16 15 15 15 15 15 15
Wind_Speed
4 3 3 1 3 5 3 4 2 2 1 0 3 4 6 5 4 3 3 12 17 16 18 22 22 21 20 20 19 19 19 18 18 17 16 16 15 14 13 12 12 12 12 12 12 12 12 13 13
4 3 1 3 5 3 4 3 2 2 1 3 3 4 4 2 3 7 7 11 17 16 17 20 22 21 20 20 19 19 18 18 17 16 15 14 14 13 12 12 11 11 11 12 12 12 12 13 13
3 2 3 4 3 3 3 3 2 1 1 1 2 2 2 3 5 7 8 16 16 14 17 21 23 22 21 20 19 18 18 17 16 15 15 14 13 12 12 11 11 11 11 11 11 12 12 13 13
2 3 4 4 1 4 5 5 3 2 1 0 3 3 2 1 5 7 15 18 17 13 16 21 23 22 21 20 19 18 17 16 15 15 14 13 12 12 12 11 11 11 11 11 11 12 12 12 12
3 4 5 4 4 5 5 6 5 4 2 1 3 4 1 4 6 14 18 18 17 14 14 20 23 22 21 20 19 18 17 16 15 14 13 13 12 11 11 11 11 11 11 11 11 11 11 11 11
4 4 4 3 6 5 5 4 3 4 3 2 4 4 1 3 8 15 16 15 15 15 13 19 23 22 21 20 19 18 17 16 15 14 13 12 12 11 11 11 10 10 10 10 10 11 11 10 10
4 4 1 3 5 6 3 1 2 3 2 4 5 5 1 4 7 12 13 13 13 12 11 13 18 20 20 20 19 18 17 16 15 14 13 12 12 11 11 10 10 10 10 10 10 10 10 9 9
4 4 1 3 4 6 3 1 1 3 2 1 5 6 5 7 11 12 12 12 12 11 11 9 12 14 15 17 18 18 17 16 15 14 13 12 11 11 10 9 9 9 9 9 9 9 8 8 8
4 4 2 4 4 6 3 1 1 2 3 2 1 2 5 15 15 15 13 11 11 12 9 9 9 10 12 13 16 17 16 15 14 13 13 11 9 9 8 8 8 8 8 8 8 8 7 7 6
4 2 6 6 5 6 6 3 3 2 2 2 2 4 13 17 17 17 17 16 15 14 11 9 9 8 10 12 13 12 12 12 11 10 10 9 8 7 6 6 7 7 7 7 6 7 7 7 6
5 6 6 7 7 6 5 3 3 5 5 7 8 11 17 17 15 15 15 14 14 13 12 10 9 8 8 6 9 8 9 9 9 9 9 9 7 5 4 3 3 4 5 5 5 6 6 6 5
5 7 6 7 6 4 4 2 2 5 7 6 10 16 18 18 16 16 16 14 12 13 12 11 10 8 7 7 7 7 6 7 6 8 9 8 5 3 3 2 2 3 4 4 4 4 4 4 5
4 6 6 8 10 5 2 3 2 3 2 6 12 16 17 16 13 11 11 12 12 12 12 11 10 9 7 6 6 7 6 6 7 7 8 8 5 3 3 3 3 3 3 3 3 2 2 3 3
4 6 8 8 6 2 1 2 1 3 4 10 13 13 14 14 13 10 11 12 12 13 12 11 10 9 7 6 5 5 7 7 7 7 8 9 7 5 4 3 3 3 4 3 3 2 2 2 2
4 6 9 5 4 2 2 4 3 2 7 10 10 11 11 10 10 13 14 13 13 12 11 11 11 9 8 7 6 6 7 8 7 7 9 9 8 7 6 4 3 4 5 4 3 3 3 2 2
4 4 5 7 4 3 3 6 5 3 8 8 8 9 9 8 9 10 10 10 10 10 11 12 12 11 9 7 6 5 7 7 7 8 8 9 10 9 7 4 3 5 5 4 3 2 2 2 2
5 4 5 8 4 3 2 7 5 2 6 7 7 7 8 7 7 7 9 11 11 11 12 12 10 10 9 7 5 4 6 6 7 8 8 9 10 10 8 5 4 5 4 3 3 2 2 2 2
3 3 5 7 6 6 5 6 5 1 5 6 6 7 7 8 9 7 8 9 9 10 11 10 9 9 8 6 5 3 4 4 5 7 8 9 9 10 8 5 5 5 4 3 2 3 2 2 2
3 4 9 10 7 5 6 6 5 1 3 5 6 7 7 7 6 7 7 9 9 9 10 11 10 9 8 6 6 5 5 4 4 5 8 10 10 10 8 5 5 4 4 4 4 3 3 2 2
4 6 8 10 5 3 4 5 3 1 3 5 7 8 8 6 6 7 7 8 10 10 9 9 9 10 9 8 6 4 4 3 3 3 5 8 10 10 8 6 5 5 4 4 4 3 3 2 2
6 6 7 8 8 5 2 6 4 2 1 1 3 5 6 8 9 9 8 9 9 10 11 10 10 10 9 8 5 5 4 3 2 3 3 5 8 9 8 8 6 5 5 5 4 4 5 3 1
6 7 8 6 3 5 2 4 7 3 2 1 2 4 6 7 7 7 8 8 9 10 10 10 11 11 10 10 9 10 7 6 5 4 4 4 6 8 9 9 7 5 4 4 4 4 3 4 3
9 3 3 3 3 2 2 2 8 3 3 5 5 5 5 6 7 7 7 7 7 8 9 10 10 10 10 10 10 10 7 5 4 4 5 4 4 6 7 8 7 6 4 4 4 4 4 3 4
5 5 6 6 4 1 3 2 7 4 6 5 4 5 5 6 6 5 4 5 4 6 7 8 9 9 9 10 10 10 10 8 8 7 6 5 3 3 5 7 6 6 5 5 4 4 5 4 4
5 5 4 5 4 5 3 2 9 7 5 6 6 6 5 6 6 6 6 6 6 7 8 8 9 9 9 9 9 10 11 10 10 9 8 7 5 4 5 5 5 5 5 5 5 5 5 5 5
7 10 8 6 5 5 3 5 8 5 4 3 4 5 6 7 7 7 7 7 7 7 8 9 9 8 8 8 8 8 9 8 6 7 7 7 6 5 6 6 6 6 7 6 5 4 4 4 4
7 6 8 7 3 1 5 7 9 3 3 1 2 5 6 7 8 7 7 7 7 7 7 8 8 7 8 8 7 7 8 8 7 7 6 5 5 5 6 6 6 6 6 6 6 4 4 5 4
6 9 7 7 7 4 5 5 5 7 6 3 4 5 5 5 6 6 6 6 6 6 6 6 6 7 6 7 7 7 7 8 7 7 7 6 6 5 7 7 7 6 6 6 6 5 4 5 4
5 5 6 5 6 7 4 7 7 8 6 4 4 4 6 6 6 6 6 6 6 6 6 6 6 6 6 6 6 7 7 7 7 7 7 7 6 7 7 7 6 6 6 6 6 5 6 6 5
6 8 9 7 5 5 5 8 5 5 4 3 4 4 5 5 5 6 6 6 6 6 6 5 5 5 6 6 6 7 7 7 7 7 7 7 7 7 7 7 7 6 6 6 6 6 6 6 5
Wind_Direction
203 167 139 121 59 46 349 302 296 341 5 57 134 137 145 150 174 194 123 140 139 145 150 151 149 145 139 135 133 131 130 129 129 128 128 129 128 126 124 122 119 118 116 115 115 115 115 116 118
148 154 134 64 75 47 318 295 300 281 174 109 90 97 106 110 100 118 131 143 143 146 149 151 151 147 143 139 137 135 134 132 132 131 131 131 130 129 126 123 120 119 117 117 117 119 119 120 120
167 162 89 67 85 167 258 264 254 325 128 128 110 72 115 143 140 149 152 145 142 144 148 154 152 149 147 144 142 140 138 137 135 135 134 134 133 131 129 126 123 122 119 118 118 120 121 122 123
130 56 54 61 325 234 231 239 210 157 275 88 129 106 77 43 152 149 143 145 143 144 149 156 154 152 150 148 147 145 143 141 140 139 138 137 137 135 133 128 125 122 119 117 117 118 122 123 125
68 74 50 14 291 264 243 239 196 183 213 199 136 136 93 9 113 135 144 147 147 146 150 157 156 155 153 152 151 149 147 145 144 144 141 140 140 136 133 129 127 125 122 120 118 119 122 126 129
55 63 63 333 298 282 264 236 173 185 198 170 144 138 84 84 125 142 146 148 149 149 150 157 158 158 157 157 155 154 152 150 148 147 144 142 141 137 133 131 129 128 124 121 119 121 124 126 128
103 89 115 279 293 299 278 175 150 174 204 198 155 140 126 137 141 140 140 141 144 147 148 153 159 160 161 160 159 158 156 154 152 150 148 146 143 141 138 135 134 131 127 124 123 124 125 126 130
127 99 17 287 275 283 285 18 137 151 211 144 139 160 188 170 142 132 132 136 143 147 148 148 151 156 160 162 163 162 161 159 155 154 154 152 149 147 143 138 139 134 131 129 127 126 124 126 130
102 72 274 246 245 272 285 334 334 128 131 126 147 174 153 138 139 138 141 144 153 155 150 148 147 151 153 159 167 165 165 164 161 160 160 152 144 142 142 148 148 140 137 133 129 128 125 122 124
105 157 239 229 227 266 290 263 209 146 158 176 97 95 128 141 149 155 160 164 165 163 160 155 153 152 154 165 164 161 162 162 157 157 151 141 138 141 146 163 158 150 144 136 129 124 117 107 104
169 209 252 263 247 256 269 254 180 160 220 212 190 160 150 155 161 166 169 170 169 164 165 164 158 156 158 155 151 150 150 149 148 150 146 143 140 139 138 151 145 136 130 110 104 99 99 108 113
203 248 250 275 278 277 252 229 199 197 231 208 172 158 158 166 171 173 172 171 165 166 169 165 164 162 159 152 149 146 145 146 148 153 155 151 149 148 150 151 139 122 117 114 107 103 107 114 128
237 274 275 272 292 279 253 241 225 258 255 127 136 151 166 173 176 176 169 165 167 170 170 170 167 167 161 152 157 155 152 157 161 164 170 171 168 169 170 169 163 154 144 138 128 116 114 121 132
266 278 291 294 306 312 240 287 165 255 130 126 141 161 174 177 171 167 169 172 174 174 171 167 168 167 161 159 158 158 160 162 168 178 186 188 184 179 172 171 175 173 170 163 153 136 126 127 135
305 313 322 319 327 330 38 327 265 203 138 139 154 166 175 179 173 179 180 178 177 172 169 169 171 166 166 165 168 165 167 167 175 187 193 193 191 185 176 170 179 182 174 159 138 116 110 120 130
3 10 332 306 332 354 52 289 285 153 147 152 162 170 177 185 186 186 178 174 171 168 170 172 177 175 174 171 167 163 169 174 180 185 191 196 193 185 173 171 183 177 164 154 139 128 119 118 126
23 357 308 308 324 10 359 276 295 159 155 158 165 175 180 179 188 187 179 175 173 173 172 174 177 176 173 165 164 165 166 174 178 177 184 191 189 184 174 173 176 165 154 153 157 130 134 140 140
275 305 300 297 305 335 310 277 292 178 162 165 165 171 178 187 194 183 176 174 172 171 171 172 175 170 161 156 154 156 157 169 173 175 182 182 182 179 170 165 164 159 148 152 145 126 109 118 133
218 267 283 280 291 307 300 297 292 221 159 166 172 178 185 195 180 168 172 175 171 170 172 172 171 169 161 166 171 174 182 177 176 181 182 178 175 173 165 160 153 157 161 166 154 128 120 110 121
226 276 286 296 327 322 304 305 297 224 194 190 186 189 190 186 173 175 174 177 178 179 176 172 170 173 176 180 177 167 151 161 172 171 172 175 171 170 167 156 158 158 150 147 152 137 126 113 122
246 231 255 274 321 350 355 323 307 327 0 145 181 190 185 187 186 183 185 189 184 183 179 179 175 176 179 175 157 138 118 104 136 164 170 174 169 167 162 163 158 160 159 163 166 155 144 141 121
259 232 227 260 305 301 25 289 292 312 316 239 212 190 189 191 188 187 190 190 188 187 180 177 178 176 179 177 173 171 175 179 187 174 169 161 163 164 165 163 160 159 156 159 168 162 148 141 147
222 224 217 259 209 295 339 196 286 316 271 249 230 210 198 195 189 191 192 191 188 179 177 178 174 175 177 178 179 178 177 176 161 152 153 155 156 165 166 162 158 154 153 158 157 153 149 147 152
198 64 48 48 76 330 269 191 279 258 242 251 231 211 199 193 183 180 177 164 162 164 166 165 168 177 179 180 180 179 174 168 162 164 167 165 158 158 163 157 154 154 154 159 162 157 150 147 142
136 93 21 355 9 254 282 226 253 257 244 232 228 220 195 182 174 167 165 163 162 163 167 165 168 177 179 181 182 180 177 173 175 175 174 168 168 172 175 159 155 157 158 158 152 149 149 149 147
178 150 163 198 222 272 318 245 258 266 266 248 211 195 180 173 172 174 175 169 168 167 168 170 173 177 178 182 184 181 176 172 174 175 170 173 178 178 169 160 160 161 158 155 148 142 148 148 148
148 180 166 139 155 255 286 287 302 276 284 275 174 169 183 180 175 175 171 164 163 165 171 176 174 172 175 181 179 177 171 166 170 170 164 166 169 167 160 160 159 158 156 152 148 145 148 144 141
147 145 113 132 152 217 282 281 260 276 265 245 197 191 199 185 175 173 170 165 160 159 162 164 167 171 175 176 178 178 172 166 165 164 167 168 166 157 152 157 160 158 154 153 147 145 146 139 134
125 123 119 122 150 157 220 265 230 238 245 219 199 194 187 182 175 166 162 158 149 148 154 159 159 156 163 170 169 164 165 161 161 166 170 167 161 158 158 160 158 157 155 154 150 150 147 138 128
170 168 149 154 190 169 171 258 273 246 249 196 174 182 182 173 168 164 158 147 147 149 151 157 158 159 162 158 156 159 155 154 159 164 165 159 155 155 155 151 150 153 153 154 154 151 144 139 131
Height
1497 1496 1496 1498 1500 1507 1506 1498 1491 1489 1488 1487 1487 1488 1490 1492 1497 1501 1495 1496 1501 1505 1509 1514 1518 1521 1524 1526 1528 1530 1532 1534 1536 1537 1539 1540 1542 1543 1544 1545 1546 1546 1547 1548 1548 1549 1550 1551 1552
1497 1496 1498 1498 1505 1516 1509 1495 1492 1489 1487 1487 1488 1488 1489 1490 1491 1491 1492 1497 1501 1506 1510 1514 1518 1521 1524 1527 1529 1531 1533 1535 1537 1539 1540 1542 1543 1544 1545 1546 1547 1548 1548 1549 1550 1551 1551 1552 1554
1497 1497 1499 1500 1507 1512 1505 1493 1489 1487 1487 1487 1488 1489 1490 1490 1491 1491 1493 1497 1502 1507 1511 1515 1518 1522 1525 1528 1530 1532 1535 1536 1538 1540 1542 1543 1545 1546 1547 1548 1549 1549 1550 1551 1552 1552 1553 1554 1556
1498 1499 1499 1505 1506 1501 1495 1489 1487 1487 1488 1487 1488 1489 1490 1491 1491 1492 1494 1498 1502 1507 1512 1516 1519 1523 1526 1529 1531 1533 1536 1538 1540 1541 1543 1545 1546 1547 1548 1549 1550 1551 1552 1553 1553 1554 1555 1556 1557
1498 1499 1504 1511 1505 1496 1489 1485 1486 1487 1487 1487 1488 1489 1490 1491 1492 1493 1495 1499 1503 1507 1512 1516 1520 1523 1527 1530 1532 1535 1537 1539 1541 1543 1544 1546 1548 1549 1550 1551 1552 1553 1554 1554 1555 1556 1557 1558 1560
1499 1500 1512 1514 1504 1493 1486 1484 1484 1486 1486 1487 1487 1489 1489 1490 1492 1494 1496 1500 1504 1508 1512 1517 1521 1524 1527 1530 1533 1536 1538 1540 1542 1544 1546 1547 1549 1550 1551 1552 1553 1554 1555 1556 1557 1558 1559 1560 1562
1500 1504 1511 1509 1505 1495 1485 1483 1484 1485 1486 1487 1486 1488 1489 1490 1492 1494 1497 1501 1505 1509 1513 1517 1521 1524 1528 1531 1534 1536 1539 1541 1543 1545 1547 1548 1550 1551 1552 1554 1555 1556 1557 1558 1559 1560 1561 1562 1564
1499 1504 1508 1509 1504 1495 1485 1484 1484 1485 1486 1486 1487 1487 1488 1489 1491 1494 1498 1502 1506 1509 1513 1517 1521 1525 1528 1531 1534 1537 1539 1542 1544 1546 1548 1550 1551 1552 1554 1555 1556 1557 1558 1560 1561 1562 1563 1564 1566
1500 1508 1512 1505 1499 1491 1484 1484 1484 1484 1484 1485 1486 1486 1486 1488 1490 1493 1498 1502 1506 1510 1513 1517 1520 1525 1528 1532 1534 1537 1540 1542 1545 1547 1549 1550 1552 1553 1555 1556 1557 1559 1560 1561 1562 1563 1564 1566 1567
1500 1510 1503 1494 1490 1486 1482 1482 1482 1482 1483 1484 1485 1485 1485 1487 1489 1492 1495 1499 1503 1508 1512 1517 1521 1524 1528 1531 1535 1537 1540 1543 1545 1547 1549 1551 1553 1554 1556 1557 1559 1560 1561 1562 1563 1564 1566 1567 1568
1498 1500 1493 1488 1485 1484 1482 1480 1480 1481 1483 1481 1481 1482 1483 1486 1489 1492 1495 1499 1503 1507 1512 1516 1520 1524 1528 1531 1534 1537 1540 1543 1545 1548 1550 1552 1553 1555 1556 1558 1559 1561 1562 1563 1564 1566 1567 1568 1570
1496 1492 1490 1485 1482 1482 1480 1479 1479 1479 1478 1478 1479 1480 1482 1485 1488 1490 1494 1498 1502 1506 1510 1515 1519 1523 1527 1531 1534 1537 1540 1543 1545 1548 1550 1552 1554 1555 1557 1558 1560 1561 1563 1564 1565 1567 1568 1569 1570
1493 1490 1487 1483 1481 1479 1478 1478 1478 1477 1476 1476 1478 1480 1482 1485 1488 1491 1495 1498 1501 1505 1509 1514 1518 1522 1526 1530 1533 1537 1540 1543 1546 1548 1551 1553 1554 1556 1557 1559 1561 1562 1563 1565 1566 1567 1569 1570 1571
1491 1488 1485 1482 1479 1478 1478 1477 1478 1476 1475 1476 1477 1480 1482 1485 1487 1491 1494 1497 1500 1504 1508 1512 1517 1521 1525 1529 1533 1536 1540 1543 1546 1548 1551 1553 1555 1556 1558 1559 1561 1563 1564 1565 1567 1568 1569 1571 1572
1489 1489 1485 1481 1479 1478 1478 1480 1477 1475 1475 1476 1477 1480 1483 1485 1488 1490 1492 1496 1499 1503 1507 1511 1515 1520 1524 1529 1533 1536 1539 1542 1545 1548 1551 1553 1555 1556 1558 1559 1561 1563 1564 1565 1567 1568 1569 1571 1572
1490 1494 1496 1485 1480 1479 1484 1488 1476 1475 1476 1476 1478 1481 1483 1485 1487 1490 1493 1496 1500 1503 1506 1510 1514 1519 1523 1527 1532 1535 1539 1542 1545 1548 1550 1552 1554 1556 1557 1559 1561 1563 1564 1565 1567 1568 1569 1570 1571
1500 1505 1501 1490 1481 1481 1484 1486 1477 1477 1477 1478 1479 1481 1482 1485 1487 1489 1492 1495 1499 1502 1505 1509 1512 1517 1522 1526 1531 1535 1538 1541 1544 1547 1549 1552 1554 1555 1557 1559 1561 1562 1564 1565 1566 1567 1569 1570 1571
1506 1504 1501 1497 1485 1483 1484 1483 1477 1476 1477 1478 1479 1480 1482 1483 1485 1488 1491 1494 1498 1501 1504 1507 1511 1516 1521 1525 1529 1533 1537 1540 1543 1545 1548 1551 1553 1554 1556 1558 1560 1561 1563 1564 1565 1567 1568 1569 1571
1497 1500 1503 1494 1484 1484 1484 1483 1478 1476 1477 1477 1479 1480 1480 1482 1485 1488 1490 1493 1496 1499 1501 1504 1509 1513 1517 1522 1526 1530 1534 1538 1541 1544 1547 1549 1551 1553 1555 1557 1559 1560 1562 1564 1565 1566 1567 1569 1570
1496 1501 1500 1490 1482 1483 1485 1483 1478 1476 1476 1476 1477 1478 1479 1481 1483 1486 1489 1492 1494 1497 1499 1503 1505 1509 1514 1519 1523 1528 1532 1536 1540 1542 1545 1547 1550 1552 1554 1556 1558 1559 1561 1562 1564 1565 1566 1568 1569
1495 1499 1497 1495 1487 1484 1486 1488 1482 1478 1477 1477 1477 1477 1478 1480 1482 1484 1487 1489 1491 1494 1497 1501 1504 1508 1512 1517 1521 1526 1530 1534 1538 1541 1543 1545 1548 1550 1553 1554 1556 1558 1560 1561 1563 1564 1565 1567 1568
1497 1487 1489 1490 1497 1502 1494 1507 1488 1482 1479 1476 1476 1476 1477 1479 1481 1483 1485 1487 1489 1492 1495 1499 1501 1505 1509 1514 1518 1522 1526 1530 1534 1537 1541 1544 1546 1549 1551 1553 1555 1557 1558 1560 1562 1563 1565 1566 1567
1485 1481 1484 1488 1495 1502 1499 1506 1497 1484 1481 1477 1475 1475 1476 1478 1480 1482 1484 1485 1487 1490 1493 1496 1499 1503 1507 1511 1515 1519 1524 1528 1532 1535 1538 1541 1544 1547 1549 1551 1553 1555 1557 1559 1561 1562 1564 1565 1566
1476 1483 1489 1498 1503 1513 1502 1505 1501 1487 1479 1474 1473 1474 1475 1477 1478 1481 1483 1484 1486 1488 1491 1494 1498 1501 1505 1509 1513 1517 1521 1525 1529 1532 1535 1538 1541 1544 1547 1549 1551 1553 1555 1557 1559 1561 1562 1564 1565
1478 1496 1515 1515 1522 1518 1502 1502 1498 1476 1472 1471 1471 1472 1473 1475 1477 1479 1481 1483 1485 1487 1490 1493 1497 1500 1503 1507 1510 1514 1518 1522 1526 1529 1532 1536 1539 1542 1544 1547 1549 1551 1554 1556 1558 1559 1561 1563 1564
1480 1490 1512 1521 1523 1516 1503 1503 1486 1471 1469 1468 1468 1470 1472 1474 1476 1478 1480 1481 1484 1486 1489 1492 1495 1498 1501 1505 1508 1512 1515 1519 1523 1526 1530 1534 1537 1540 1542 1545 1547 1550 1552 1554 1556 1558 1559 1561 1563
1479 1486 1485 1505 1511 1515 1508 1497 1480 1468 1468 1467 1468 1469 1471 1472 1474 1476 1479 1481 1482 1485 1488 1491 1493 1496 1499 1502 1506 1509 1512 1516 1519 1524 1528 1532 1535 1538 1540 1543 1546 1548 1550 1552 1554 1556 1558 1559 1561
1466 1477 1493 1504 1518 1519 1506 1500 1492 1474 1469 1467 1468 1469 1470 1472 1474 1476 1478 1480 1482 1484 1487 1490 1492 1494 1497 1501 1504 1507 1510 1513 1517 1522 1526 1529 1533 1536 1538 1541 1544 1546 1548 1551 1553 1555 1556 1558 1559
1472 1478 1486 1499 1502 1515 1516 1503 1473 1469 1466 1466 1467 1467 1469 1471 1472 1475 1477 1479 1482 1484 1486 1489 1491 1493 1496 1499 1502 1505 1508 1512 1515 1519 1523 1527 1531 1533 1536 1539 1542 1545 1547 1549 1551 1553 1555 1556 1558
1460 1469 1480 1492 1500 1504 1507 1497 1463 1463 1462 1463 1465 1467 1468 1470 1472 1474 1476 1479 1481 1484 1486 1488 1490 1492 1495 1498 1501 1504 1507 1510 1514 1518 1521 1525 1529 1532 1534 1537 1540 1543 1545 1548 1550 1552 1553 1555 1556